FENGYUN 1C DEB, 30234

Orbit data source: Space-Track

FENGYUN 1C DEB, 30234 is space debris in SSO originally from a launch on Mon, 10 May 1999 UTC launched from the Taiyaun Space Center, China (TSC). Fengyun 1C debris stems from the Chinese weather satellite Fengyun-1C, which was intentionally destroyed by a Chinese anti-satellite missile in 2007. This event dramatically increased the amount of space debris, with thousands of trackable fragments posing hazards to satellites and human spaceflight. The Fengyun 1C debris cloud has become a focal point in discussions about space sustainability and the need for international regulations to prevent the creation of new debris.

Loading next visibility...
Identifier
30234, 1999-025WT
Orbit
SSO
Country
Flag of CNCN / PRC
Related business
Manufacturer
Unknown
Mission
Spacecraft
Bus & Motor
Unknown
Mass
Unknown
Launch date (UTC)
1999-05-10 (27 years ago)
Launch vehicle
Unknown
Launch site
Taiyaun Space Center, China (TSC)
Object type
Payload
Rocket body
Debris
Shape & HBR
Unknown shape, 0.1 m
Radar Cross Section
Medium (>0.1 m² and <1 m²)

Expand to show TLE details & history
Last TLE update: 15 hours ago

TLE from 15 hours ago
0 FENGYUN 1C DEB
1 30234U 99025WT  26254.97550675  .00000351  00000-0  19095-3 0  9996
2 30234  98.6308 262.7905 0066109  10.8009  18.2396 14.17191291 13244
Epoch: 2026-09-11T23:24Z
TLE epoch observation values (Epoch: 2026-09-11T23:24:43.783Z)
Latitude
28.96415°
Longitude
-84.17658°
Altitude
793.185 km
Speed
7.483 km/s
True Right ascension
17h 11m 59s
True Declination
28° 49' 10"
Sunlit
Object was in daylight at epoch
Visualization orbit readout
Latitude
Unknown
Longitude
Unknown
Altitude
Unknown
Speed
Unknown
Apparent Right ascension
Unknown
Apparent Declination
Unknown
Sunlit
N/A
Visualization observer readout
Local Sidereal Time
06:42:25
Azimuth
Unknown
Elevation
Unknown
Doppler factor
Unknown
Orbital elements
Apogee altitude
879.691 km
Perigee altitude
784.36 km
Semi-major axis
7,210.163 km
Eccentricity
0.00661
Inclination
98.6308°
RAAN
262.7905°
Arg. of periapsis
10.8009°
True anomaly
18.47858°
Mean anomaly
18.2396°
Eccentric anomaly
18.3589°
Mean motion
3.54508 °/min
Orbital period
101.55 mins
BSTAR
0.00019095
Loading maneuver chart data...
Computing Atmospheric mass density...
Loading historical data...
Loading historical data...
Loading historical data...
Loading historical data...
Loading historical data...
Loading historical data...
Loading historical data...

Documentation

Showing up to 5 results
|